• în Republica Moldova
  • Lista ţărilor
  • Pe 7 zile
  • Temperatura apei
  • Hartă satelitară
  • Meteo pe hartă
  • Widget-uri
  • user-avatar
    Intrare

    Meteo pe oră la Yarcevo

    Astăzi, 22 Iulie, Duminică

    Timp Temperatura Precipitaţii Vânt Presiune Umiditate
    00:00 +19°C° 0 mm 3 m/s 741 mmHg 96%
    01:00 +19°C° 0 mm 3 m/s 741 mmHg 97%
    02:00 +19°C° 0 mm 2 m/s 741 mmHg 98%
    03:00 +19°C° 0,1 mm 3 m/s 741 mmHg 97%
    04:00 +19°C° 0,1 mm 4 m/s 741 mmHg 97%
    05:00 +20°C° 0,1 mm 4 m/s 741 mmHg 97%
    06:00 +20°C° 0,1 mm 4 m/s 741 mmHg 96%
    07:00 +20°C° 0,1 mm 4 m/s 742 mmHg 95%
    08:00 +20°C° 0,1 mm 5 m/s 742 mmHg 94%
    09:00 +21°C° 0,1 mm 5 m/s 742 mmHg 93%
    10:00 +21°C° 0,1 mm 5 m/s 742 mmHg 92%
    11:00 +21°C° 0,1 mm 5 m/s 742 mmHg 91%
    12:00 +21°C° 0 mm 5 m/s 742 mmHg 89%
    13:00 +22°C° 0 mm 5 m/s 742 mmHg 88%
    14:00 +22°C° 0 mm 5 m/s 742 mmHg 87%
    15:00 +22°C° 0 mm 5 m/s 742 mmHg 87%
    16:00 +22°C° 0 mm 5 m/s 742 mmHg 87%
    17:00 +22°C° 0 mm 5 m/s 741 mmHg 87%
    18:00 +21°C° 0 mm 5 m/s 741 mmHg 88%
    19:00 +21°C° 0 mm 5 m/s 741 mmHg 90%
    20:00 +20°C° 0 mm 5 m/s 741 mmHg 91%
    21:00 +20°C° 0,2 mm 5 m/s 741 mmHg 92%
    22:00 +19°C° 0,2 mm 5 m/s 741 mmHg 93%
    23:00 +19°C° 0,2 mm 5 m/s 741 mmHg 95%

    Mâine, 23 Iulie, Luni

    Timp Temperatura Precipitaţii Vânt Presiune Umiditate
    00:00 +19°C° 0 mm 5 m/s 741 mmHg 94%
    01:00 +19°C° 0 mm 5 m/s 741 mmHg 93%
    02:00 +19°C° 0 mm 5 m/s 741 mmHg 93%
    03:00 +19°C° 0,1 mm 5 m/s 741 mmHg 93%
    04:00 +19°C° 0,1 mm 5 m/s 741 mmHg 94%
    05:00 +19°C° 0,1 mm 5 m/s 742 mmHg 94%
    06:00 +17°C° 0,1 mm 5 m/s 742 mmHg 93%
    07:00 +17°C° 0,1 mm 5 m/s 742 mmHg 93%
    08:00 +17°C° 0,1 mm 5 m/s 742 mmHg 92%
    09:00 +19°C° 0 mm 5 m/s 742 mmHg 91%
    10:00 +19°C° 0 mm 5 m/s 742 mmHg 90%
    11:00 +19°C° 0 mm 5 m/s 742 mmHg 88%
    12:00 +19°C° 0,1 mm 5 m/s 742 mmHg 88%
    13:00 +19°C° 0,1 mm 5 m/s 742 mmHg 87%
    14:00 +20°C° 0,1 mm 5 m/s 742 mmHg 87%
    15:00 +20°C° 0 mm 5 m/s 742 mmHg 87%
    16:00 +20°C° 0 mm 5 m/s 742 mmHg 87%
    17:00 +20°C° 0 mm 5 m/s 742 mmHg 88%
    18:00 +20°C° 0,2 mm 5 m/s 742 mmHg 89%
    19:00 +20°C° 0,2 mm 5 m/s 742 mmHg 91%
    20:00 +20°C° 0,2 mm 5 m/s 742 mmHg 93%
    21:00 +20°C° 0,4 mm 5 m/s 742 mmHg 94%
    22:00 +19°C° 0,4 mm 5 m/s 742 mmHg 95%
    23:00 +19°C° 0,4 mm 5 m/s 743 mmHg 96%

    Poimâine, 24 Iulie, Marţi

    Timp Temperatura Precipitaţii Vânt Presiune Umiditate
    00:00 +19°C° 0,1 mm 4 m/s 742 mmHg 96%
    01:00 +20°C° 0,1 mm 4 m/s 742 mmHg 96%
    02:00 +20°C° 0,1 mm 4 m/s 742 mmHg 97%
    03:00 +20°C° 0 mm 4 m/s 743 mmHg 96%
    04:00 +20°C° 0 mm 4 m/s 743 mmHg 96%
    05:00 +20°C° 0 mm 4 m/s 743 mmHg 96%
    06:00 +21°C° 0,1 mm 4 m/s 743 mmHg 94%
    07:00 +22°C° 0,1 mm 4 m/s 743 mmHg 91%
    08:00 +22°C° 0,1 mm 4 m/s 744 mmHg 89%
    09:00 +25°C° 0,5 mm 4 m/s 744 mmHg 85%
    10:00 +26°C° 0,5 mm 4 m/s 744 mmHg 81%
    11:00 +27°C° 0,5 mm 4 m/s 744 mmHg 77%
    12:00 +27°C° 0,5 mm 4 m/s 744 mmHg 76%
    13:00 +27°C° 0,5 mm 4 m/s 744 mmHg 76%
    14:00 +27°C° 0,5 mm 4 m/s 745 mmHg 76%
    15:00 +26°C° 0,6 mm 4 m/s 745 mmHg 80%
    16:00 +25°C° 0,6 mm 4 m/s 745 mmHg 84%
    17:00 +24°C° 0,6 mm 3 m/s 745 mmHg 88%
    18:00 +22°C° 0,6 mm 3 m/s 746 mmHg 90%
    19:00 +21°C° 0,6 mm 3 m/s 746 mmHg 92%
    20:00 +20°C° 0,6 mm 3 m/s 746 mmHg 94%
    21:00 +20°C° 0,1 mm 3 m/s 746 mmHg 95%
    22:00 +20°C° 0,1 mm 3 m/s 746 mmHg 95%
    23:00 +20°C° 0,1 mm 3 m/s 747 mmHg 95%

    25 Iulie, Miercuri

    Timp Temperatura Precipitaţii Vânt Presiune Umiditate
    00:00 +19°C° 0 mm 3 m/s 747 mmHg 95%
    01:00 +19°C° 0 mm 3 m/s 747 mmHg 95%
    02:00 +19°C° 0 mm 3 m/s 747 mmHg 94%
    03:00 +19°C° 0,1 mm 4 m/s 747 mmHg 93%
    04:00 +18°C° 0,1 mm 4 m/s 747 mmHg 92%
    05:00 +18°C° 0,1 mm 4 m/s 747 mmHg 90%
    06:00 +19°C° 0 mm 5 m/s 747 mmHg 86%
    07:00 +20°C° 0 mm 6 m/s 747 mmHg 81%
    08:00 +21°C° 0 mm 6 m/s 747 mmHg 77%
    09:00 +21°C° 0,1 mm 6 m/s 747 mmHg 75%
    10:00 +22°C° 0,1 mm 6 m/s 747 mmHg 72%
    11:00 +22°C° 0,1 mm 6 m/s 747 mmHg 70%
    12:00 +23°C° 0 mm 6 m/s 747 mmHg 68%
    13:00 +24°C° 0 mm 6 m/s 747 mmHg 66%
    14:00 +26°C° 0 mm 6 m/s 748 mmHg 65%
    15:00 +26°C° 0,1 mm 6 m/s 748 mmHg 67%
    16:00 +24°C° 0,1 mm 6 m/s 748 mmHg 69%
    17:00 +25°C° 0,1 mm 5 m/s 748 mmHg 72%
    18:00 +23°C° 0 mm 5 m/s 748 mmHg 74%
    19:00 +22°C° 0 mm 5 m/s 748 mmHg 75%
    20:00 +21°C° 0 mm 4 m/s 748 mmHg 77%
    21:00 +21°C° 0 mm 4 m/s 749 mmHg 78%
    22:00 +20°C° 0 mm 4 m/s 749 mmHg 78%
    23:00 +20°C° 0 mm 4 m/s 749 mmHg 79%

    26 Iulie, Joi

    Timp Temperatura Precipitaţii Vânt Presiune Umiditate
    00:00 +20°C° 0 mm 4 m/s 749 mmHg 80%
    01:00 +19°C° 0 mm 4 m/s 749 mmHg 81%
    02:00 +19°C° 0 mm 4 m/s 749 mmHg 83%
    03:00 +19°C° 0 mm 4 m/s 749 mmHg 84%
    04:00 +18°C° 0 mm 4 m/s 749 mmHg 85%
    05:00 +18°C° 0 mm 4 m/s 749 mmHg 86%
    06:00 +20°C° 0 mm 4 m/s 750 mmHg 82%
    07:00 +21°C° 0 mm 5 m/s 750 mmHg 79%
    08:00 +23°C° 0 mm 5 m/s 750 mmHg 76%
    09:00 +25°C° 0 mm 5 m/s 750 mmHg 74%
    10:00 +26°C° 0 mm 5 m/s 750 mmHg 72%
    11:00 +27°C° 0 mm 5 m/s 750 mmHg 70%
    12:00 +27°C° 0 mm 5 m/s 750 mmHg 70%
    13:00 +27°C° 0 mm 5 m/s 750 mmHg 70%
    14:00 +27°C° 0 mm 5 m/s 750 mmHg 70%
    15:00 +27°C° 0 mm 5 m/s 750 mmHg 71%
    16:00 +27°C° 0 mm 4 m/s 750 mmHg 73%
    17:00 +27°C° 0 mm 4 m/s 750 mmHg 75%
    18:00 +26°C° 0 mm 4 m/s 751 mmHg 77%
    19:00 +25°C° 0 mm 4 m/s 751 mmHg 80%
    20:00 +22°C° 0 mm 4 m/s 751 mmHg 82%
    21:00 +22°C° 0,2 mm 3 m/s 751 mmHg 83%
    22:00 +22°C° 0,2 mm 3 m/s 751 mmHg 84%
    23:00 +22°C° 0,2 mm 3 m/s 751 mmHg 86%

    27 Iulie, Vineri

    Timp Temperatura Precipitaţii Vânt Presiune Umiditate
    00:00 +21°C° 0,2 mm 3 m/s 751 mmHg 88%
    01:00 +21°C° 0,2 mm 3 m/s 752 mmHg 89%
    02:00 +21°C° 0,2 mm 3 m/s 752 mmHg 91%
    03:00 +21°C° 0,2 mm 3 m/s 752 mmHg 92%
    04:00 +20°C° 0,2 mm 3 m/s 752 mmHg 92%
    05:00 +20°C° 0,2 mm 3 m/s 752 mmHg 92%
    06:00 +21°C° 0 mm 3 m/s 752 mmHg 87%
    07:00 +23°C° 0 mm 4 m/s 752 mmHg 82%
    08:00 +25°C° 0 mm 4 m/s 753 mmHg 78%
    09:00 +26°C° 0 mm 4 m/s 753 mmHg 72%
    10:00 +28°C° 0 mm 5 m/s 753 mmHg 66%
    11:00 +29°C° 0 mm 5 m/s 753 mmHg 60%
    12:00 +29°C° 0 mm 5 m/s 752 mmHg 59%
    13:00 +29°C° 0 mm 5 m/s 752 mmHg 58%
    14:00 +29°C° 0 mm 5 m/s 752 mmHg 58%
    15:00 +29°C° 0 mm 4 m/s 752 mmHg 62%
    16:00 +29°C° 0 mm 4 m/s 752 mmHg 66%
    17:00 +28°C° 0 mm 3 m/s 752 mmHg 70%
    18:00 +27°C° 0 mm 3 m/s 752 mmHg 74%
    19:00 +25°C° 0 mm 3 m/s 752 mmHg 77%
    20:00 +22°C° 0 mm 3 m/s 752 mmHg 80%
    21:00 +23°C° 0 mm 2 m/s 752 mmHg 81%
    22:00 +21°C° 0 mm 2 m/s 753 mmHg 82%
    23:00 +21°C° 0 mm 2 m/s 753 mmHg 84%
    Arată mai mult